{"data":{"norad_id":32785,"intl_designator":"2008-021C","name":"CUTE-1.7+APD II (CO-65)","alt_names":[],"object_type":"PAYLOAD","status":"ACTIVE","operator":null,"country":"JPN","launch_date":"2008-04-28","launch_site_code":"SRILR","launch_vehicle":null,"mission":null,"orbit_class":"UNKNOWN","rcs_meters":0.102,"size_class":null,"mass_kg":null,"dimensions":null,"purposes":["comms","tech_demo"],"wikipedia_slug":null,"has_3d_model":false,"image_url":null,"decayed_at":null,"tle_current":{"epoch":"2026-05-25T04:16:01.449984Z","epoch_age_seconds":55692,"freshness":"FRESH","line1":"1 32785U 08021C   26145.17779456  .00004510  00000+0  28765-3 0  9990","line2":"2 32785  97.8262 126.1242 0010640 104.7166 255.5242 15.09192180981723","mean_motion":15.0919218,"eccentricity":0.001064,"inclination_deg":97.8262,"raan_deg":126.1242,"arg_perigee_deg":104.7166,"mean_anomaly_deg":255.5242,"bstar":0.00028765,"rev_number":98172,"period_min":95.415283691703,"perigee_km":531.30764534753,"apogee_km":546.0266045254,"semimajor_km":6916.8041249365,"source":"CELESTRAK","updated_at":"2026-05-25T13:38:25.486628Z"}}}